This demonstration page uses our WeatherBlox Daily Observations layout. Learn more.

Left ArrowRight Arrow

39.92423, -83.80882

Hourly Observations for June 2, 2018

Temp ( °F °C ) Dew Point ( °F °C ) Humidity (%) Winds ( mph kmh ) Pressure ( in mb ) Visibility ( mi km ) Precip ( " mm )
12:56 am 00:56 Clear with Mist and Fog 66 18.9 66 18.9 100 100 N N/A 29.87 1012 4 6 N/A
1:56 am 01:56 Clear with Mist and Fog 67 19.4 67 19.4 100 100 NW 6 9 29.87 1011 3 5 N/A
2:56 am 02:56 Clear with Mist and Fog 67 19.4 66 18.9 97 97 NW 3 6 29.86 1011 3 5 N/A
3:14 am 03:14 Clear with Mist and Fog 64 18 64 18 100 100 NNW 7 11 29.85 1011 3 4 N/A
3:41 am 03:41 Clear with Mist and Fog 66 19 66 19 100 100 NNE 6 9 29.85 1011 5 8 N/A
3:56 am 03:56 Clear 67 19.4 67 19.4 100 100 N 7 11 29.87 1012 7 11 N/A
4:56 am 04:56 Clear with Mist and Fog 67 19.4 66 18.9 97 97 NNE 6 9 29.88 1012 5 8 N/A
5:18 am 05:18 Partly Cloudy with Mist and Fog 66 19 66 19 100 100 NNE 9 15 29.88 1012 4 6 N/A
5:26 am 05:26 Mostly Cloudy with Mist and Fog 66 19 66 19 100 100 NNE 8 13 29.88 1012 3 5 N/A
5:56 am 05:56 Cloudy with Mist and Fog 67 19.4 66 18.9 97 97 NNE 10 17 29.89 1012 4 6 N/A
6:56 am 06:56 Cloudy 65 18.3 63 17.2 93 93 NE 5 7 29.91 1013 9 14 N/A
7:05 am 07:05 Cloudy 64 18 63 17 94 94 NNE 5 7 29.91 1013 10 16 N/A
7:56 am 07:56 Mostly Cloudy 66 18.9 64 17.8 93 93 ENE 7 11 29.91 1013 10 16 N/A
8:20 am 08:20 Partly Cloudy 66 19 63 17 88 88 NE 10 17 29.91 1013 10 16 N/A
8:38 am 08:38 Mostly Cloudy 66 19 63 17 88 88 NE 9 15 29.91 1013 10 16 N/A
8:56 am 08:56 Partly Cloudy 67 19.4 64 17.8 91 91 ENE 9 15 29.92 1013 10 16 N/A
9:37 am 09:37 Mostly Cloudy 70 21 64 18 83 83 NE 7 11 29.91 1013 10 16 N/A
9:56 am 09:56 Partly Cloudy 69 20.6 64 17.8 84 84 NE 6 9 29.92 1013 10 16 N/A
10:56 am 10:56 Sunny 73 22.8 65 18.3 76 76 VRB 3 6 29.92 1013 10 16 N/A
11:56 am 11:56 Mostly Cloudy 75 23.9 67 19.4 76 76 N 6 9 29.94 1014 10 16 N/A
12:56 pm 12:56 Mostly Cloudy 77 25 68 20 74 74 NNE 6 9 29.93 1014 10 16 N/A
1:17 pm 13:17 Cloudy 77 25 68 20 74 74 NNW 8 13 29.88 1012 9 14 N/A
1:56 pm 13:56 Mostly Cloudy 78 25.6 68 20 71 71 N 7 11 29.92 1013 10 16 N/A
2:56 pm 14:56 Mostly Cloudy 77 25 68 20 74 74 NNE 6 9 29.91 1013 10 16 N/A
3:56 pm 15:56 Mostly Cloudy 80 26.7 68 20 67 67 NE 7 11 29.89 1012 10 16 N/A
4:56 pm 16:56 Partly Cloudy 81 27.2 66 18.9 61 61 N 6 9 29.87 1012 10 16 N/A
5:56 pm 17:56 Partly Cloudy 80 26.7 65 18.3 60 60 N N/A 29.85 1011 10 16 N/A
6:56 pm 18:56 Partly Cloudy 79 26.1 67 19.4 67 67 ENE 9 15 29.81 1010 10 16 N/A
7:56 pm 19:56 Sunny 78 25.6 65 18.3 64 64 N 6 9 29.85 1011 10 16 N/A
8:56 pm 20:56 Sunny 73 22.8 66 18.9 79 79 ENE 8 13 29.85 1011 10 16 N/A
9:56 pm 21:56 Mostly Clear 71 21.7 65 18.3 81 81 ENE 6 9 29.87 1012 10 16 N/A
10:56 pm 22:56 Mostly Cloudy 69 20.6 65 18.3 87 87 ENE 6 9 29.89 1012 10 16 N/A
11:56 pm 23:56 Partly Cloudy 67 19.4 64 17.8 91 91 ENE 6 9 29.89 1012 10 16 N/A

Powered by AerisWeather